Regional Weather Roundup
Issued by NWS

Home | Current Version | Previous Version | Text Only | Print | Product List | Glossary Off
Versions: 1 2 3 4 5 6 7 8 9 10 11 12 13 14 15 16 17 18 19 20 21 22 23 24 25 26 27 28 29 30 31 32 33 34 35 36 37 38 39 40 41 42 43 44 45 46 47 48 49 50

000
ASUS43 KDTX 222001
RWRMI
MICHIGAN HOURLY REGIONAL WEATHER ROUNDUP
NATIONAL WEATHER SERVICE DETROIT/PONTIAC MI
300 PM EST WED NOV 22 2017

NOTE: "FAIR" INDICATES FEW OR NO CLOUDS BELOW 12,000 FEET WITH NO
SIGNIFICANT WEATHER AND/OR OBSTRUCTION TO VISIBILITY.

MIZ047>049-052>055-059>063-066>070-074>076-081>083-222100-
SOUTHEAST LOWER MICHIGAN

CITY           SKY/WX    TMP DP  RH WIND       PRES   REMARKS
ADRIAN         PTSUNNY   34  16  47 W8        30.26F WCI  27
ALMA           CLOUDY    32  17  54 SW6       30.26S WCI  26
ANN ARBOR      PTSUNNY   34  15  46 NW6       30.25R WCI  29
BAD AXE        CLOUDY    31  17  56 W7        30.24S WCI  24
CARO           CLOUDY    32  20  60 NW6       30.24S WCI  26
DETROIT CITY   CLOUDY    34  16  47 W5        30.26R WCI  30
DETROIT        PTSUNNY   35  17  47 N6        30.26S WCI  30
FLINT          CLOUDY    32  16  51 VRB3      30.26S
GROSSE ILE     CLOUDY    34  18  51 W6        30.26R WCI  28
HILLSDALE      CLOUDY    34  18  51 W6        30.23F WCI  29
HOWELL         CLOUDY    33  19  56 W8        30.25S WCI  26

CITY           SKY/WX    TMP DP  RH WIND       PRES   REMARKS
JACKSON        PTSUNNY   33  15  47 W7        30.25S WCI  27
LAMBERTVILLE   PTSUNNY   36  17  46 SW3       30.26S
LANSING        CLOUDY    32  18  56 W8        30.26F WCI  25
LAPEER         CLOUDY    32  17  54 W8        30.24S WCI  25
MASON          CLOUDY    34  18  53 W5        30.26S WCI  30
MONROE         MOSUNNY   36  17  45 W5        30.26S WCI  32
MT. CLEMENS    CLOUDY    33  18  54 NW8       30.24R WCI  26
PONTIAC        CLOUDY    32  17  54 W8        30.23S WCI  25
PORT HOPE        N/A     32  16  51 NW7       30.22S WCI  26
PORT HURON     CLOUDY    32  18  55 W6        30.25R WCI  26
TRI CITIES     CLOUDY    33  18  53 W12       30.25F WCI  24
MIDLAND        CLOUDY    33  17  51 SW3       30.24F
TROY           CLOUDY    35  17  47 NW10      30.27R WCI  27
SAGINAW HB     CLOUDY    32  18  55 NW6       30.24F WCI  26
$$
MIZ043>046-050>051-056>058-064>065-071>073-077>080-222100-
SOUTHWEST LOWER MICHIGAN

CITY           SKY/WX    TMP DP  RH WIND       PRES   REMARKS
BATTLE CREEK   CLOUDY    34  19  54 W9        30.26F WCI  27
BENTON HARBOR  CLOUDY    35  22  58 W9        30.27F WCI  28
BIG RAPIDS     CLOUDY    31  16  53 W9        30.22F WCI  23
COLDWATER      PTSUNNY   35  17  47 W8        30.26F WCI  28
FREMONT        CLOUDY    33  20  60 W9        30.24F WCI  25
HOLLAND        CLOUDY    34  22  61 S5        30.26F WCI  30
GRAND RAPIDS   CLOUDY    33  21  61 W9        30.25F WCI  25
IONIA          PTSUNNY   35  17  49 SW9       30.24F WCI  27
KALAMAZOO      CLOUDY    34  18  52 W7        30.27F WCI  28
LUDINGTON      CLOUDY    31  18  59 W3        30.26R
MARSHALL       PTSUNNY   35  17  48 W8        30.26S WCI  28
MOUNT PLEASANT CLOUDY    34  16  48 SW12      30.23F WCI  26
MUSKEGON       CLOUDY    34  20  56 W10       30.26F WCI  26
SOUTH HAVEN    CLOUDY    36  21  53 W8        30.26F WCI  30
$$
MIZ016>042-222100-
NORTHERN LOWER MICHIGAN

CITY           SKY/WX    TMP DP  RH WIND       PRES   REMARKS
ALPENA         CLOUDY    33  17  51 N3        30.20F
BEAVER ISLAND  CLOUDY    32  22  66 SW7       30.19F WCI  26
BELLAIRE       CLOUDY    32  22  69 CALM      30.22S
CADILLAC       CLOUDY    29  16  58 SW6       30.19F WCI  23
CHARLEVOIX     CLOUDY    32  21  63 SW6       30.23S WCI  27
FRANKFORT      CLOUDY    32  20  61 W5        30.23S WCI  28
GAYLORD        CLOUDY    27  18  69 W7        30.17F WCI  19
GRAYLING       CLOUDY    29  16  59 W6        30.20F WCI  23
HARBOR SPRINGS MIX PCPN  31  24  76 W5        30.20S WCI  26
HOUGHTON LAKE  CLOUDY    29  17  61 W9        30.21F WCI  20
MANISTEE       CLOUDY    31  20  63 SW7       30.25S WCI  24
OSCODA         CLOUDY    35  13  40 W9        30.21F WCI  28
PELLSTON       CLOUDY    32  20  61 W6        30.20F WCI  26
ROGERS CITY    CLOUDY    32  20  61 W5        30.21S WCI  27
TRAVERSE CITY  CLOUDY    32  17  54 SW6       30.23S WCI  26
$$
MIZ007>008-015-222100-
EASTERN UPPER MICHIGAN

CITY           SKY/WX    TMP DP  RH WIND       PRES   REMARKS
KINROSS        FLURRIES  30  23  75 W13       30.17F WCI  20
MACKINAC ISLAN CLOUDY    32  19  60 W10       30.19S WCI  23
NEWBERRY       CLOUDY    27  21  80 SW10      30.17F WCI  17
S. S. MARIE    CLOUDY    29  24  82 CALM      30.16F
MUNISING         N/A     29  18  63 SW5       30.16F WCI  24
$$
MIZ004>006-011>014-085-222100-
CENTRAL UPPER MICHIGAN

CITY           SKY/WX    TMP DP  RH WIND       PRES   REMARKS
MANISTIQUE     CLOUDY    30  14  50 SW7       30.18F WCI  23
ESCANABA       MOSUNNY   30  19  63 S12       30.18F WCI  20
MENOMINEE      CLOUDY    28  15  58 SW8       30.21F WCI  20
SAWYER-GWINN   SUNNY     25  16  68 SW9       30.13F WCI  15
$$
MIZ001>003-009>011-084-222100-
WESTERN UPPER MICHIGAN

CITY           SKY/WX    TMP DP  RH WIND       PRES   REMARKS
IRON MOUNTAIN  MOSUNNY   27  13  55 S10       30.14F WCI  17
HOUGHTON       MOSUNNY   26  12  55 SW9       30.10F WCI  17
COPPER HARBOR    N/A     28  16  60 VRB7      30.13F WCI  21
IRONWOOD       CLOUDY    24  12  60 S9        30.11F WCI  14
$$

ABBREVIATIONS USED IN REMARKS
   TC - TEMPERATURE IN CELSIUS
  WCI - WIND CHILL INDEX
   HX - HEAT INDEX
  VSB - VISIBILITY




USA.gov is the U.S. government's official web portal to all federal, state and local government web resources and services.